MST,Max TemperatureF,Mean TemperatureF,Min TemperatureF,Max Dew PointF,MeanDew PointF,Min DewpointF,Max Humidity, Mean Humidity, Min Humidity, Max Sea Level PressureIn, Mean Sea Level PressureIn, Min Sea Level PressureIn, Max VisibilityMiles, Mean VisibilityMiles, Min VisibilityMiles, Max Wind SpeedMPH, Mean Wind SpeedMPH, Max Gust SpeedMPH,PrecipitationIn, CloudCover, Events, WindDirDegrees
2012-11-1,72,49,26,37,31,24,92,57,22,30.05,29.93,29.80,10,10,10,20,6,24,0.00,0,,187
2012-11-2,62,43,24,37,31,23,92,60,27,30.19,29.99,29.77,10,10,10,24,10,31,0.00,1,,330
2012-11-3,61,41,21,31,26,19,96,62,27,30.25,30.17,30.08,10,10,10,18,6,22,0.00,0,,262
2012-11-4,63,44,24,36,28,21,92,58,23,30.24,30.15,30.09,10,10,10,30,10,36,T,2,,296
2012-11-5,63,43,22,37,31,21,96,65,34,30.27,30.13,30.02,10,10,10,17,8,26,0.00,1,,278
2012-11-6,62,45,28,37,30,23,92,61,29,30.27,30.18,30.08,10,10,10,20,7,25,0.00,0,,316
2012-11-7,77,49,21,34,23,17,96,54,11,30.12,29.93,29.78,10,10,10,22,9,25,0.00,0,,216
2012-11-8,55,42,28,32,29,21,100,71,41,30.03,29.91,29.78,10,10,9,21,10,25,0.00,0,,50
2012-11-9,53,39,25,35,30,25,100,73,46,29.86,29.76,29.60,10,4,0,17,9,21,0.00,5,Fog,119
2012-11-10,36,26,16,36,26,10,100,87,73,29.95,29.66,29.51,10,4,0,26,13,35,0.01,8,Fog-Snow,356
2012-11-11,25,13,1,12,6,-2,88,72,55,30.33,30.14,29.86,10,10,10,20,10,24,0.00,0,,294
2012-11-12,38,20,1,27,13,-2,86,71,56,30.44,30.36,30.31,10,10,10,20,7,22,0.00,0,,246
2012-11-13,48,32,15,29,22,13,92,67,42,30.32,30.28,30.23,10,10,10,16,6,20,0.01,3,,255
2012-11-14,54,37,19,31,25,17,91,63,35,30.29,30.20,30.11,10,10,10,20,7,23,0.00,1,,249
2012-11-15,49,37,24,29,24,20,88,62,36,30.43,30.37,30.20,10,10,10,14,6,16,0.00,1,,117
2012-11-16,59,42,25,29,26,21,88,58,28,30.32,30.16,30.03,10,10,10,24,11,30,0.00,0,,170
2012-11-17,64,46,27,32,28,25,85,55,25,30.09,30.04,29.99,10,10,10,23,8,26,0.00,2,,243
2012-11-18,67,45,23,31,28,21,88,56,24,29.99,29.94,29.82,10,10,10,28,10,35,0.00,0,,236
2012-11-19,61,43,25,32,27,22,92,62,32,30.23,30.16,30.01,10,10,10,24,7,29,0.00,0,,267
2012-11-20,69,46,22,31,23,19,88,53,17,30.21,30.10,29.98,10,10,10,24,9,29,0.00,0,,234
2012-11-21,74,51,28,30,19,10,78,44,9,29.99,29.86,29.73,10,10,10,26,8,32,0.00,0,,238
2012-11-22,53,36,19,30,19,12,76,51,25,30.50,30.15,29.73,10,10,10,36,16,44,0.00,1,,323
2012-11-23,47,28,9,18,13,6,91,57,23,30.59,30.44,30.14,10,10,10,13,7,21,0.00,0,,221
2012-11-24,65,45,24,25,19,15,68,42,16,30.12,29.97,29.84,10,10,10,20,7,30,0.00,0,,315
2012-11-25,48,39,29,31,27,22,92,73,53,30.14,29.99,29.89,10,9,1,18,9,23,T,6,Snow,81
2012-11-26,32,26,20,27,23,17,92,85,78,30.46,30.28,30.10,10,6,1,16,6,18,0.14,6,Snow,57
2012-11-27,46,29,11,26,19,8,92,66,40,30.34,30.24,30.10,10,10,9,10,3,12,0.00,0,,252
2012-11-28,59,38,16,28,19,13,88,55,21,30.27,30.15,30.03,10,10,10,18,6,23,0.00,0,,190
2012-11-29,63,40,17,32,23,14,92,57,21,30.07,30.00,29.91,10,10,10,32,7,39,0.00,0,,253
2012-11-30,64,43,21,29,22,19,96,58,19,30.06,29.92,29.78,10,10,10,24,9,29,0.00,0,,177